15min,AgWx,beryljct,423,27DEC2018:00:00:00,19.5,12.79,19.4,18.7,18.9,19.8,17.7,86,88,85,0.305,15.4,16.7,14.0,3.442,3.8,324,6.6,5.4,-0.00005,-0.00005,35.0,36.6,22,0,0,35.5,9.28,0.00,0.00
15min,AgWx,beryljct,423,27DEC2018:00:15:00,19.1,12.78,17.5,15.7,17.2,18.5,14.8,86,88,83,0.272,13.8,15.3,11.0,1.162,1.7,316,5.0,4.2,-0.00009,-0.00012,35.0,36.6,22,0,0,35.7,9.28,0.00,0.00
15min,AgWx,beryljct,423,27DEC2018:00:30:00,18.5,12.78,17.3,15.3,16.7,17.4,15.0,89,90,86,0.265,13.9,14.8,11.7,3.179,1.7,101,46,3.7,-0.00009,-0.00012,35.0,36.6,22,0,0,35.6,9.28,0.00,0.00
15min,AgWx,beryljct,423,27DEC2018:00:45:00,18.1,12.77,17.2,18.5,16.2,18.5,14.8,90,92,88,0.310,13.8,16.0,11.9,2.565,1.4,187,10,3.7,-0.00010,-0.00013,34.9,36.5,22,0,0,35.5,9.28,0.00,0.00
15min,AgWx,beryljct,423,27DEC2018:01:00:00,18.1,12.76,18.9,16.8,18.4,19.0,16.8,87,89,85,0.274,15.1,16.1,13.0,3.354,3.9,293,13,4.9,-0.00005,-0.00005,34.9,36.5,22,0,0,35.5,9.28,0.00,0.00
15min,AgWx,beryljct,423,27DEC2018:01:15:00,18.1,12.73,17.2,16.3,16.7,17.8,16.0,87,89,85,0.274,13.5,15.0,12.6,3.376,3.9,309,12,5.5,-0.00005,-0.00005,34.9,36.5,22,0,0,35.6,9.28,0.00,0.00
15min,AgWx,beryljct,423,27DEC2018:01:30:00,17.9,12.72,16.4,15.9,15.8,16.3,15.5,88,90,87,0.275,13.0,13.7,12.5,3.486,3.0,323,11,4.7,-0.00006,-0.00007,34.8,36.5,22,0,0,35.6,9.28,0.00,0.00
15min,AgWx,beryljct,423,27DEC2018:01:45:00,17.7,12.73,17.7,17.0,17.0,17.7,16.0,87,90,86,0.281,13.8,14.7,13.2,2.368,3.8,297,2.0,4.6,-0.00005,-0.00005,34.8,36.5,22,0,0,35.6,9.28,0.00,0.00
15min,AgWx,beryljct,423,27DEC2018:02:00:00,17.7,12.58,17.5,17.0,16.8,17.6,15.7,86,88,85,0.286,13.5,14.4,12.1,4.056,3.0,296,1.8,4.1,-0.00006,-0.00007,34.8,36.5,22,0,0,35.3,9.28,0.00,0.00
15min,AgWx,beryljct,423,27DEC2018:02:15:00,17.8,12.54,19.0,19.0,18.1,19.2,16.7,86,88,83,0.294,14.4,15.3,13.2,4.231,3.8,297,5.2,4.5,-0.00005,-0.00005,34.8,36.5,22,0,0,35.6,9.28,0.00,0.00
15min,AgWx,beryljct,423,27DEC2018:02:30:00,18.1,12.54,19.2,18.6,18.6,19.2,17.9,83,85,81,0.297,14.2,14.8,13.2,0.702,3.1,308,17,5.2,-0.00005,-0.00006,34.8,36.5,22,0,0,35.7,9.28,0.00,0.00
15min,AgWx,beryljct,423,27DEC2018:02:45:00,18.1,12.65,14.1,12.8,14.2,18.6,12.8,85,87,81,0.237,10.5,14.8,9.8,2.85,3.3,116,17,5.1,-0.00005,-0.00005,34.7,36.4,22,0,0,35.5,9.28,0.00,0.00
15min,AgWx,beryljct,423,27DEC2018:03:00:00,17.5,12.67,13.3,12.8,12.7,12.8,12.5,88,88,87,0.240,9.8,10.0,9.6,2.653,2.1,148,2.8,2.8,-0.00007,-0.00009,34.7,36.4,22,0,0,35.8,9.28,0.00,0.00
15min,AgWx,beryljct,423,27DEC2018:03:15:00,17.1,12.66,13.5,13.4,12.8,13.4,12.5,88,89,88,0.247,9.9,10.7,9.5,2.258,2.7,151,6.8,3.4,-0.00006,-0.00007,34.7,36.4,22,0,0,35.6,9.28,0.00,0.00
15min,AgWx,beryljct,423,27DEC2018:03:30:00,17.0,12.65,14.8,14.6,14.0,14.6,13.4,88,89,88,0.260,11.2,11.8,10.6,2.105,2.8,155,2.5,3.8,-0.00006,-0.00007,34.6,36.4,22,0,0,35.8,9.28,0.00,0.00
15min,AgWx,beryljct,423,27DEC2018:03:45:00,17.2,12.64,15.4,14.9,14.7,14.9,14.6,88,89,88,0.263,11.8,12.1,11.6,3.201,3.7,158,9.5,4.8,-0.00005,-0.00005,34.6,36.4,22,0,0,35.6,9.28,0.00,0.00
15min,AgWx,beryljct,423,27DEC2018:04:00:00,17.6,12.63,16.5,16.5,15.7,16.6,14.9,89,89,89,0.283,13.0,13.8,12.1,3.025,4.8,193,8.6,6.4,-0.00004,-0.00004,34.6,36.4,22,0,0,35.8,9.28,0.00,0.00
15min,AgWx,beryljct,423,27DEC2018:04:15:00,18.1,12.63,18.0,17.9,17.1,17.9,16.5,88,89,88,0.297,14.2,14.8,13.7,3.113,3.4,195,5.9,4.8,-0.00006,-0.00007,34.6,36.4,22,0,0,35.5,9.28,0.00,0.00
15min,AgWx,beryljct,423,27DEC2018:04:30:00,18.7,12.64,19.0,18.5,18.3,18.5,17.9,86,88,85,0.297,14.9,15.1,14.7,1.074,1.1,161,9.2,2.8,-0.00011,-0.00015,34.5,36.3,22,0,0,35.8,9.28,0.00,0.00
15min,AgWx,beryljct,423,27DEC2018:04:45:00,19.3,12.63,19.5,19.1,18.8,19.1,18.5,85,85,85,0.302,15.1,15.4,14.8,0.592,0.9,121,13,2.2,-0.00012,-0.00017,34.5,36.3,22,0,0,35.6,9.28,0.00,0.00
15min,AgWx,beryljct,423,27DEC2018:05:00:00,19.9,12.62,19.8,19.3,19.2,19.3,19.1,85,85,84,0.307,15.4,15.6,15.2,3.201,1.8,25,57,4.0,-0.00009,-0.00012,34.5,36.3,22,0,0,35.5,9.28,0.00,0.00
15min,AgWx,beryljct,423,27DEC2018:05:15:00,20.5,12.61,19.9,19.3,19.3,19.4,19.2,85,86,85,0.307,15.6,15.8,15.4,2.192,2.4,343,11,3.6,-0.00008,-0.00009,34.5,36.3,22,0,0,35.7,9.28,0.00,0.00
15min,AgWx,beryljct,423,27DEC2018:05:30:00,20.8,12.47,19.7,19.0,19.2,19.4,19.0,85,85,84,0.302,15.4,15.6,15.1,1.885,2.0,1.9,5.1,2.9,-0.00009,-0.00011,34.4,36.3,22,0,0,35.8,9.28,0.00,0.00
15min,AgWx,beryljct,423,27DEC2018:05:45:00,21.0,12.59,19.7,19.2,19.1,19.3,19.0,86,87,85,0.310,15.5,15.9,15.1,5.261,2.5,346,22,5.3,-0.00008,-0.00009,34.4,36.3,22,0,0,35.5,9.28,0.00,0.00
15min,AgWx,beryljct,423,27DEC2018:06:00:00,21.2,12.59,19.9,19.3,19.3,19.4,19.1,87,87,86,0.310,15.9,16.2,15.7,2.85,4.3,314,5.8,5.8,-0.00004,-0.00005,34.4,36.3,22,0,0,35.4,9.28,0.00,0.00
15min,AgWx,beryljct,423,27DEC2018:06:15:00,21.4,12.6,20.0,19.4,19.4,19.5,19.3,86,87,85,0.311,15.9,16.2,15.6,1.008,1.9,341,7.1,4.0,-0.00009,-0.00011,34.4,36.3,22,0,0,35.7,9.28,0.00,0.00
15min,AgWx,beryljct,423,27DEC2018:06:30:00,21.5,12.61,20.0,19.5,19.4,19.5,19.3,86,87,86,0.315,16.0,16.2,15.8,0.833,0.5,344,0.0,1.1,-0.00015,-0.00022,34.3,36.3,22,0,0,35.7,9.28,0.00,0.00
15min,AgWx,beryljct,423,27DEC2018:06:45:00,21.6,12.59,20.1,19.7,19.5,19.7,19.4,87,88,86,0.321,16.2,16.6,16.0,2.477,1.7,356,10,3.2,-0.00010,-0.00013,34.3,36.2,22,0,0,35.3,9.28,0.00,0.00
15min,AgWx,beryljct,423,27DEC2018:07:00:00,21.8,12.57,20.0,19.4,19.5,19.7,19.4,88,89,87,0.320,16.4,16.6,16.1,3.551,2.4,24,20,4.0,-0.00008,-0.00010,34.3,36.2,22,0,68,35.4,9.28,0.01,0.00
15min,AgWx,beryljct,423,27DEC2018:07:15:00,22.0,12.55,20.0,19.5,19.4,19.5,19.3,90,90,89,0.328,16.8,17.1,16.6,3.442,3.4,32,14,5.0,0.00004,0.00007,34.3,36.2,22,0,100,35.6,9.29,0.00,0.00
15min,AgWx,beryljct,423,27DEC2018:07:30:00,22.1,12.44,20.0,19.4,19.4,19.5,19.3,90,90,90,0.325,17.0,17.2,16.8,3.047,2.7,23,10,4.5,0.00003,0.00006,34.3,36.2,22,0,74,35.9,9.29,0.00,0.00
15min,AgWx,beryljct,423,27DEC2018:07:45:00,22.1,12.43,20.3,19.7,19.6,19.8,19.4,89,90,89,0.327,17.0,17.2,16.9,3.091,3.5,13,10,4.6,0.00005,0.00008,34.2,36.2,22,1,0,35.7,9.29,0.00,0.00
15min,AgWx,beryljct,423,27DEC2018:08:00:00,22.2,12.55,20.4,19.8,19.8,19.9,19.7,90,90,89,0.332,17.2,17.4,17.0,2.696,2.8,6.0,5.7,3.7,0.00005,0.00008,34.2,36.2,22,4,0,35.4,9.29,0.00,0.00
15min,AgWx,beryljct,423,27DEC2018:08:15:00,22.4,12.55,20.5,20.1,20.0,20.1,19.8,91,91,90,0.339,17.7,17.9,17.4,3.135,3.1,345,6.3,4.2,0.00009,0.00012,34.2,36.2,22,20,100,35.5,9.30,0.00,0.00
15min,AgWx,beryljct,423,27DEC2018:08:30:00,22.6,12.58,20.8,20.5,20.2,20.5,20.0,91,92,91,0.347,18.1,18.5,17.9,4.45,3.5,7.5,11,5.9,0.00013,0.00016,34.2,36.1,22,33,100,35.7,9.30,0.00,0.00
15min,AgWx,beryljct,423,27DEC2018:08:45:00,22.9,12.6,21.3,20.8,20.7,20.8,20.5,91,92,91,0.350,18.6,18.7,18.4,6.445,6.3,24,8.7,8.2,0.00015,0.00020,34.2,36.1,22,40,34,35.6,9.30,0.00,0.00
15min,AgWx,beryljct,423,27DEC2018:09:00:00,23.2,12.63,21.5,21.0,20.9,21.1,20.8,91,91,90,0.348,18.6,18.8,18.5,8.68,7.1,16,8.9,9.1,0.00018,0.00023,34.1,36.1,22,47,0,35.6,9.30,0.00,0.00
15min,AgWx,beryljct,423,27DEC2018:09:15:00,23.5,12.96,21.4,20.9,20.9,21.0,20.8,90,90,90,0.349,18.5,18.6,18.4,5.985,6.5,18,9.1,9.2,0.00036,0.00043,34.1,36.1,22,149,0,36.0,9.30,0.00,0.00
15min,AgWx,beryljct,423,27DEC2018:09:30:00,24.2,13.45,21.4,21.2,21.0,21.2,20.8,90,90,90,0.352,18.6,18.8,18.4,6.138,6.2,35,5.8,8.0,0.00047,0.00054,34.1,36.1,22,205,0,35.6,9.30,0.00,0.00
15min,AgWx,beryljct,423,27DEC2018:09:45:00,25.3,14.89,21.9,21.8,21.5,21.8,21.1,90,90,89,0.356,18.9,19.1,18.6,5.831,5.5,35,6.4,7.0,0.00059,0.00067,34.1,36.1,22,257,0,35.7,9.30,0.00,0.00
15min,AgWx,beryljct,423,27DEC2018:10:00:00,26.6,14.82,22.3,22.1,21.9,22.1,21.7,88,89,87,0.355,18.9,19.2,18.7,6.555,5.6,39,6.8,6.9,0.00063,0.00072,34.1,36.1,22,260,0,35.7,9.30,0.00,0.00
15min,AgWx,beryljct,423,27DEC2018:10:15:00,28.0,14.9,22.8,22.8,22.4,22.8,21.9,86,87,85,0.357,18.9,19.1,18.4,6.862,5.4,49,11,7.4,0.00087,0.00098,34.1,36.1,22,370,0,37.2,9.30,0.00,0.00
15min,AgWx,beryljct,423,27DEC2018:10:30:00,28.9,14.82,23.0,22.7,22.6,22.8,22.4,85,86,84,0.354,18.8,19.1,18.5,7.322,6.7,60,6.5,9.1,0.00067,0.00078,34.1,36.0,22,266,0,35.7,9.30,0.00,0.00
15min,AgWx,beryljct,423,27DEC2018:10:45:00,29.4,14.81,23.4,23.2,23.0,23.4,22.7,85,86,84,0.355,19.0,19.2,18.9,7.585,6.9,58,5.5,8.8,0.00088,0.00100,34.1,36.0,22,366,0,36.6,9.30,0.00,0.00
15min,AgWx,beryljct,423,27DEC2018:11:00:00,29.5,14.89,23.3,23.1,22.9,23.2,22.5,84,85,83,0.355,18.8,19.0,18.5,5.546,6.3,68,6.0,7.8,0.00075,0.00086,34.1,36.0,22,292,0,35.9,9.30,0.00,0.00
15min,AgWx,beryljct,423,27DEC2018:11:15:00,29.9,14.82,23.6,23.5,23.3,23.5,23.1,84,84,83,0.361,19.1,19.4,18.9,4.582,5.6,87,8.9,7.8,0.00122,0.00136,34.0,36.0,22,507,0,41.2,9.30,0.00,0.00
15min,AgWx,beryljct,423,27DEC2018:11:30:00,31.0,14.72,24.4,24.7,24.0,24.7,23.4,83,84,81,0.366,19.5,19.7,19.2,4.45,4.6,87,8.9,6.1,0.00134,0.00149,34.0,36.0,22,532,0,46.3,9.30,0.00,0.00
15min,AgWx,beryljct,423,27DEC2018:11:45:00,31.8,14.71,25.7,25.8,25.3,25.9,24.6,77,81,71,0.340,19.0,19.8,17.8,9.16,6.3,70,23,10.7,0.00129,0.00148,34.0,36.0,22,499,0,43.7,9.30,0.00,0.00
15min,AgWx,beryljct,423,27DEC2018:12:00:00,32.4,14.72,26.1,25.8,25.8,26.0,25.6,71,72,70,0.331,17.7,18.3,17.2,10.11,8.2,54,11,11.2,0.00134,0.00160,34.0,36.0,22,519,0,39.4,9.30,0.00,0.00
15min,AgWx,beryljct,423,27DEC2018:12:15:00,32.8,14.73,26.4,26.0,26.1,26.5,25.8,71,73,69,0.335,17.8,18.9,17.3,9.76,9.1,53,9.6,13.4,0.00139,0.00166,34.0,36.0,22,539,0,41.1,9.29,0.00,0.00
15min,AgWx,beryljct,423,27DEC2018:12:30:00,32.9,14.29,26.5,26.2,26.1,26.3,26.0,71,72,69,0.347,18.0,18.5,17.4,11.25,9.6,55,12,13.1,0.00119,0.00146,34.0,36.0,22,452,0,38.5,9.29,0.00,0.00
15min,AgWx,beryljct,423,27DEC2018:12:45:00,32.9,14.28,26.6,26.3,26.4,26.8,26.1,71,73,68,0.335,18.1,18.9,17.3,6.905,9.6,47,8.6,13.2,0.00132,0.00159,34.0,35.9,22,511,0,39.6,9.29,0.00,0.00
15min,AgWx,beryljct,423,27DEC2018:13:00:00,33.3,14.3,27.0,26.7,26.8,27.0,26.3,71,72,70,0.352,18.7,19.3,17.9,9.54,9.2,45,10,12.6,0.00134,0.00161,34.0,35.9,22,512,0,42.0,9.29,0.00,0.00
15min,AgWx,beryljct,423,27DEC2018:13:15:00,33.4,14.28,27.0,26.8,26.7,26.9,26.5,73,74,71,0.363,19.2,19.6,18.7,8.81,9.3,43,8.1,12.5,0.00101,0.00125,33.9,35.9,22,371,0,40.0,9.29,0.00,0.00
15min,AgWx,beryljct,423,27DEC2018:13:30:00,33.1,14.32,27.1,26.6,26.8,26.9,26.6,75,77,74,0.373,20.0,20.4,19.5,8.37,10.0,47,7.6,12.9,0.00093,0.00115,33.9,35.9,22,347,0,39.1,9.29,0.00,0.00
15min,AgWx,beryljct,423,27DEC2018:13:45:00,32.7,14.34,27.0,26.5,26.7,26.9,26.4,76,79,75,0.383,20.3,20.9,19.8,10.04,9.5,43,8.1,12.5,0.00081,0.00102,33.9,35.9,22,295,0,38.1,9.29,0.00,0.00
15min,AgWx,beryljct,423,27DEC2018:14:00:00,32.2,14.34,26.5,25.9,26.2,26.5,25.9,80,82,78,0.386,20.9,21.3,20.2,10.04,10.5,47,8.9,13.2,0.00072,0.00090,33.9,35.9,22,286,0,36.8,9.29,0.00,0.00
15min,AgWx,beryljct,423,27DEC2018:14:15:00,31.8,14.33,26.3,25.8,25.9,26.1,25.8,83,85,81,0.395,21.5,22.1,20.9,11.73,10.5,58,6.3,13.2,0.00071,0.00087,33.9,35.9,22,323,0,37.1,9.29,0.00,0.00
15min,AgWx,beryljct,423,27DEC2018:14:30:00,31.5,14.36,26.0,25.5,25.6,25.8,25.4,84,86,83,0.401,21.5,21.8,21.3,11.11,11.0,53,5.7,12.9,0.00057,0.00072,33.9,35.9,22,261,0,35.8,9.29,0.00,0.00
15min,AgWx,beryljct,423,27DEC2018:14:45:00,31.0,14.38,25.9,25.6,25.5,25.6,25.4,86,87,86,0.405,21.9,22.3,21.6,7.388,9.1,55,7.8,11.3,0.00049,0.00061,33.9,35.9,22,237,0,35.8,9.29,0.00,0.00
15min,AgWx,beryljct,423,27DEC2018:15:00:00,30.8,14.34,26.2,25.9,25.7,25.9,25.6,86,87,85,0.407,22.1,22.6,21.8,10.15,9.4,65,7.1,11.5,0.00045,0.00056,33.9,35.8,22,223,0,35.4,9.29,0.00,0.00
15min,AgWx,beryljct,423,27DEC2018:15:15:00,30.5,13.82,26.4,25.8,26.0,26.1,25.8,84,85,82,0.403,21.8,22.2,21.3,10.5,10.1,62,5.7,13.3,0.00039,0.00053,33.9,35.8,22,193,0,35.5,9.29,0.00,0.00
15min,AgWx,beryljct,423,27DEC2018:15:30:00,30.3,14.41,26.3,25.8,25.8,25.9,25.7,86,87,85,0.410,22.2,22.4,21.9,7.98,8.7,63,5.5,10.9,0.00036,0.00047,33.9,35.8,22,190,0,35.8,9.29,0.00,0.00
15min,AgWx,beryljct,423,27DEC2018:15:45:00,30.1,13.76,26.3,25.8,25.8,26.0,25.8,86,86,85,0.405,22.2,22.4,21.9,10.94,8.5,58,5.9,11.1,0.00037,0.00048,33.9,35.8,22,190,0,35.4,9.29,0.00,0.00
15min,AgWx,beryljct,423,27DEC2018:16:00:00,29.9,13.56,26.1,25.6,25.7,25.9,25.6,86,87,85,0.408,22.2,22.5,22.0,8.35,9.1,53,8.2,12.6,0.00027,0.00038,33.9,35.8,22,155,0,35.3,9.29,0.00,0.00
15min,AgWx,beryljct,423,27DEC2018:16:15:00,29.6,13.48,25.9,25.4,25.4,25.7,25.4,87,88,87,0.406,22.2,22.3,22.1,8.22,9.4,47,7.0,11.7,0.00023,0.00032,33.9,35.8,22,141,0,35.3,9.29,0.00,0.00
15min,AgWx,beryljct,423,27DEC2018:16:30:00,29.3,13.36,25.8,25.2,25.3,25.5,25.1,88,88,87,0.402,22.1,22.3,21.9,10.17,9.1,52,7.5,12.3,0.00006,0.00007,33.9,35.8,22,99,0,35.4,9.29,0.00,0.00
15min,AgWx,beryljct,423,27DEC2018:16:45:00,28.8,13.23,25.8,25.5,25.3,25.5,25.1,85,87,83,0.388,21.3,21.9,21.0,9.01,8.1,48,11,10.4,0.00004,0.00005,33.9,35.8,22,56,0,35.6,9.29,0.00,0.00
15min,AgWx,beryljct,423,27DEC2018:17:00:00,28.3,13.14,25.6,24.8,25.2,25.5,24.8,85,86,83,0.392,21.1,21.3,21.0,8.44,7.3,48,9.1,11.2,0.00001,0.00002,33.9,35.8,22,32,0,35.3,9.29,0.00,0.00
15min,AgWx,beryljct,423,27DEC2018:17:15:00,28.0,13.08,25.1,24.5,24.6,24.8,24.5,88,89,86,0.397,21.5,21.7,21.3,10.3,10.9,51,7.6,14.3,0.00001,0.00002,33.9,35.8,22,14,0,35.4,9.29,0.00,0.00
15min,AgWx,beryljct,423,27DEC2018:17:30:00,27.6,12.92,24.8,24.2,24.3,24.6,24.2,90,91,89,0.403,21.8,22.0,21.6,7.103,10.0,56,7.1,13.2,-0.00001,-0.00001,33.9,35.8,22,4,0,35.6,9.29,0.00,0.00
15min,AgWx,beryljct,423,27DEC2018:17:45:00,27.2,12.9,24.9,24.3,24.3,24.4,24.1,90,91,88,0.393,21.8,22.0,21.3,6.599,8.8,59,7.6,12.3,-0.00002,-0.00002,33.9,35.8,22,1,0,35.6,9.29,0.00,0.00
15min,AgWx,beryljct,423,27DEC2018:18:00:00,26.9,13.02,24.9,24.2,24.3,24.4,24.2,87,88,86,0.382,20.9,21.4,20.6,5.086,6.4,42,7.2,9.6,-0.00003,-0.00002,33.9,35.8,22,0,0,35.6,9.29,0.00,0.00
15min,AgWx,beryljct,423,27DEC2018:18:15:00,26.6,13.01,24.8,24.1,24.2,24.4,24.1,85,86,83,0.378,20.3,20.7,19.8,5.853,7.4,53,8.6,11.1,-0.00001,-0.00000,33.9,35.7,22,0,0,35.5,9.29,0.00,0.00
15min,AgWx,beryljct,423,27DEC2018:18:30:00,26.5,13,24.8,24.1,24.2,24.4,23.9,85,86,84,0.377,20.4,20.6,20.2,9.21,9.8,51,5.5,12.5,0.00001,0.00001,33.9,35.7,22,0,0,35.7,9.29,0.00,0.00
15min,AgWx,beryljct,423,27DEC2018:18:45:00,26.4,12.98,24.3,23.7,23.8,24.2,23.7,87,89,86,0.386,20.6,21.0,20.4,7.125,8.5,54,6.3,10.4,-0.00001,-0.00001,33.8,35.7,22,0,0,35.8,9.29,0.00,0.00
15min,AgWx,beryljct,423,27DEC2018:19:00:00,26.3,12.97,24.2,23.8,23.7,23.8,23.7,90,91,89,0.396,21.2,21.5,20.9,5.327,7.1,47,4.8,9.3,-0.00003,-0.00003,33.8,35.7,22,0,0,35.5,9.29,0.00,0.00
15min,AgWx,beryljct,423,27DEC2018:19:15:00,26.3,12.97,24.3,23.9,23.8,23.9,23.7,91,92,91,0.399,21.6,21.8,21.4,6.971,6.8,42,5.9,8.9,-0.00004,-0.00004,33.8,35.7,22,0,0,35.6,9.30,0.00,0.00
15min,AgWx,beryljct,423,27DEC2018:19:30:00,26.3,12.96,24.4,23.7,23.8,24.0,23.7,91,91,91,0.394,21.5,21.7,21.4,8.68,7.4,39,5.2,9.1,-0.00003,-0.00003,33.8,35.7,22,0,0,35.5,9.30,0.00,0.00
15min,AgWx,beryljct,423,27DEC2018:19:45:00,26.3,12.81,24.0,23.2,23.5,23.8,23.2,91,92,91,0.389,21.2,21.5,21.0,5.875,7.0,43,5.3,9.1,-0.00004,-0.00004,33.8,35.7,22,0,0,35.5,9.30,0.00,0.00
15min,AgWx,beryljct,423,27DEC2018:20:00:00,26.1,12.92,23.4,22.7,22.9,23.2,22.7,91,92,91,0.379,20.7,21.1,20.5,5.744,5.8,38,5.6,7.8,-0.00005,-0.00005,33.8,35.7,22,0,0,35.4,9.30,0.00,0.00
15min,AgWx,beryljct,423,27DEC2018:20:15:00,25.8,12.92,23.3,22.5,22.7,22.9,22.5,91,91,90,0.371,20.4,20.7,19.9,7.344,6.0,41,5.6,8.3,-0.00004,-0.00005,33.8,35.7,22,0,0,35.6,9.30,0.00,0.00
15min,AgWx,beryljct,423,27DEC2018:20:30:00,25.4,12.9,22.8,22.1,22.3,22.5,22.1,90,90,90,0.366,19.8,20.0,19.6,4.976,5.8,41,5.1,6.9,-0.00004,-0.00004,33.8,35.7,22,0,0,35.6,9.30,0.00,0.00
15min,AgWx,beryljct,423,27DEC2018:20:45:00,25.1,12.91,22.7,22.4,22.1,22.4,21.9,90,91,90,0.371,19.7,20.0,19.5,6.62,5.3,35,5.9,7.5,-0.00005,-0.00005,33.8,35.7,22,0,0,35.6,9.30,0.00,0.00
15min,AgWx,beryljct,423,27DEC2018:21:00:00,25.1,12.9,23.7,23.4,22.9,23.4,22.4,90,91,89,0.382,20.5,20.8,20.0,11.93,7.9,34,7.1,11.9,-0.00003,-0.00002,33.8,35.7,22,0,0,35.8,9.30,0.00,0.00
15min,AgWx,beryljct,423,27DEC2018:21:15:00,25.4,12.9,23.6,22.8,23.1,23.4,22.8,89,89,89,0.371,20.3,20.7,20.0,8.51,9.5,44,5.1,12.1,-0.00001,-0.00001,33.8,35.7,22,0,0,35.6,9.30,0.00,0.00
15min,AgWx,beryljct,423,27DEC2018:21:30:00,25.4,12.87,23.2,22.5,22.7,22.8,22.5,89,90,89,0.370,19.9,20.0,19.9,7.782,7.9,38,5.7,10.5,-0.00002,-0.00002,33.8,35.6,22,0,0,35.8,9.30,0.00,0.00
15min,AgWx,beryljct,423,27DEC2018:21:45:00,25.4,12.87,23.3,22.7,22.7,22.8,22.5,90,90,89,0.372,20.1,20.3,19.9,7.892,8.3,34,6.2,11.1,-0.00002,-0.00002,33.8,35.6,22,0,0,35.5,9.30,0.00,0.00
15min,AgWx,beryljct,423,27DEC2018:22:00:00,25.3,12.72,23.0,22.2,22.5,22.8,22.2,89,90,89,0.363,19.8,20.1,19.4,10.65,10.4,40,5.7,13.8,-0.00001,-0.00000,33.8,35.6,22,0,0,35.8,9.30,0.00,0.00
15min,AgWx,beryljct,423,27DEC2018:22:15:00,25.0,12.71,22.6,22.0,22.0,22.2,22.0,89,89,88,0.355,19.2,19.4,18.9,13.26,13.7,45,4.6,17.1,0.00001,0.00001,33.8,35.6,22,0,0,35.5,9.30,0.00,0.00
15min,AgWx,beryljct,423,27DEC2018:22:30:00,24.7,12.82,22.5,21.8,21.9,22.0,21.8,87,88,86,0.345,18.6,18.9,18.3,13.7,13.0,43,5.2,16.3,0.00001,0.00002,33.8,35.6,22,0,0,35.8,9.30,0.00,0.00
15min,AgWx,beryljct,423,27DEC2018:22:45:00,24.5,12.83,22.4,21.8,21.8,22.0,21.7,86,86,86,0.343,18.2,18.4,18.1,10.57,11.0,43,4.4,13.5,0.00001,0.00002,33.8,35.6,22,0,0,35.6,9.30,0.00,0.00
15min,AgWx,beryljct,423,27DEC2018:23:00:00,24.4,12.81,22.6,22.3,21.9,22.3,21.8,85,86,83,0.340,18.1,18.2,18.0,10.94,10.2,40,6.0,15.3,0.00001,0.00001,33.8,35.6,22,0,0,35.6,9.30,0.00,0.00
15min,AgWx,beryljct,423,27DEC2018:23:15:00,24.4,12.81,22.7,21.8,22.1,22.3,21.8,83,84,83,0.336,17.8,18.0,17.7,7.892,9.5,37,4.9,13.3,0.00001,0.00002,33.8,35.6,22,0,0,35.7,9.30,0.00,0.00
15min,AgWx,beryljct,423,27DEC2018:23:30:00,24.3,12.81,22.1,21.5,21.6,21.9,21.4,84,84,84,0.334,17.5,17.7,17.4,7.717,7.5,31,5.2,9.9,-0.00001,0.00000,33.8,35.6,22,0,0,35.8,9.30,0.00,0.00
15min,AgWx,bigpiney,439,27DEC2018:00:00:00,4.3,12.65,-0.1,-2.1,-0.3,1.2,-2.1,75,77,75,0.103,-6.2,-4.9,-8.1,2.236,1.9,230,13,3.3,-0.00003,-0.00004,30.9,32.5,35,0,0,0.0,.,0.00,0.00
15min,AgWx,bigpiney,439,27DEC2018:00:15:00,4.0,12.65,-1.8,-1.6,-2.3,-1.6,-2.8,77,78,75,0.109,-7.8,-6.9,-8.2,1.556,1.6,225,11,3.1,-0.00003,-0.00004,30.9,32.5,35,0,0,0.0,.,0.00,0.00
15min,AgWx,bigpiney,439,27DEC2018:00:30:00,3.4,12.64,-1.8,-3.1,-2.2,-1.5,-3.4,77,77,76,0.100,-7.7,-6.9,-9.0,2.039,1.4,253,25,4.7,-0.00004,-0.00005,30.9,32.6,35,0,0,0.0,.,0.00,0.00
15min,AgWx,bigpiney,439,27DEC2018:00:45:00,2.7,12.63,-2.1,-4.4,-2.5,-0.7,-4.4,77,79,74,0.091,-8.0,-6.1,-10.6,4.538,1.8,259,43,4.8,-0.00003,-0.00004,30.9,32.5,35,0,0,0.0,.,0.00,0.00
15min,AgWx,bigpiney,439,27DEC2018:01:00:00,1.9,12.63,-4.0,-4.4,-4.4,-2.8,-5.1,77,79,74,0.097,-9.8,-8.0,-10.6,3.442,3.7,222,7.7,4.8,-0.00001,-0.00001,30.9,32.5,35,0,0,0.0,.,0.00,0.00
15min,AgWx,bigpiney,439,27DEC2018:01:15:00,1.2,12.62,-2.7,-4.5,-3.3,-1.5,-4.5,77,80,74,0.093,-8.7,-6.6,-10.6,3.727,3.1,246,14,4.5,-0.00001,-0.00001,30.9,32.5,35,0,0,0.0,.,0.00,0.00
15min,AgWx,bigpiney,439,27DEC2018:01:30:00,0.6,12.6,-5.5,-6.1,-5.8,-4.8,-6.5,77,79,74,0.088,-11.1,-10.0,-12.5,2.762,3.1,236,20,4.8,-0.00001,-0.00001,30.9,32.5,35,0,0,0.0,.,0.00,0.00
15min,AgWx,bigpiney,439,27DEC2018:01:45:00,-0.1,12.6,-5.3,-6.1,-5.9,-5.4,-6.4,78,79,77,0.088,-11.0,-10.4,-11.6,3.31,3.5,206,20,4.8,-0.00001,-0.00001,30.9,32.5,35,0,0,0.0,.,0.00,0.00
15min,AgWx,bigpiney,439,27DEC2018:02:00:00,-0.6,12.59,-6.1,-6.7,-6.6,-5.3,-7.8,78,79,77,0.087,-11.6,-10.1,-13.0,3.398,1.4,267,24,4.1,-0.00003,-0.00004,30.9,32.5,35,0,0,0.0,.,0.00,0.00
15min,AgWx,bigpiney,439,27DEC2018:02:15:00,-1.1,12.58,-5.2,-6.1,-5.8,-3.8,-6.9,79,81,77,0.089,-10.7,-8.3,-11.8,1.71,2.0,280,24,3.6,-0.00002,-0.00003,30.8,32.5,35,0,0,0.0,.,0.00,0.00
15min,AgWx,bigpiney,439,27DEC2018:02:30:00,-1.5,12.58,-4.5,-5.5,-5.1,-3.6,-6.1,78,80,76,0.091,-10.2,-8.4,-11.5,2.762,3.1,247,28,5.0,-0.00001,-0.00001,30.8,32.5,35,0,0,0.0,.,0.00,0.00
15min,AgWx,bigpiney,439,27DEC2018:02:45:00,-1.6,12.56,-4.7,-4.6,-5.3,-4.2,-5.9,78,78,77,0.094,-10.4,-9.4,-11.0,4.56,4.2,220,8.3,5.0,-0.00001,-0.00000,30.8,32.5,35,0,0,0.0,.,0.00,0.00
15min,AgWx,bigpiney,439,27DEC2018:03:00:00,-1.5,12.56,-3.7,-3.6,-4.4,-3.6,-5.1,77,78,76,0.098,-9.8,-9.0,-10.6,3.573,4.6,225,7.2,6.2,-0.00000,0.00000,30.8,32.5,35,0,0,0.0,.,0.00,0.00
15min,AgWx,bigpiney,439,27DEC2018:03:15:00,-1.2,12.56,-1.5,-1.2,-2.4,-1.2,-3.6,77,77,77,0.110,-7.9,-6.7,-9.0,4.604,4.2,212,6.4,5.9,-0.00001,-0.00000,30.8,32.5,35,0,0,0.0,.,0.00,0.00
15min,AgWx,bigpiney,439,27DEC2018:03:30:00,-0.5,12.55,0.4,-0.2,-0.3,0.0,-1.2,76,77,75,0.112,-6.1,-5.8,-6.6,3.639,4.1,218,6.6,5.8,-0.00001,-0.00000,30.8,32.5,35,0,0,0.0,.,0.00,0.00
15min,AgWx,bigpiney,439,27DEC2018:03:45:00,0.3,12.53,0.6,-0.1,0.1,0.6,-0.4,75,76,74,0.112,-6.0,-5.6,-6.4,4.713,3.9,214,9.7,5.1,-0.00001,-0.00000,30.8,32.5,35,0,0,0.0,.,0.00,0.00
15min,AgWx,bigpiney,439,27DEC2018:04:00:00,0.9,12.54,0.8,0.8,0.2,0.8,-0.2,75,76,74,0.116,-5.9,-5.5,-6.3,2.894,4.5,210,11,6.1,-0.00000,0.00000,30.8,32.4,35,0,0,0.0,.,0.00,0.00
15min,AgWx,bigpiney,439,27DEC2018:04:15:00,1.3,12.52,0.8,-0.3,0.4,0.9,-0.3,75,76,74,0.113,-5.8,-5.5,-6.1,1.25,1.7,227,30,3.9,-0.00003,-0.00004,30.8,32.5,35,0,0,0.0,.,0.00,0.00
15min,AgWx,bigpiney,439,27DEC2018:04:30:00,1.7,12.5,0.7,0.8,0.0,0.9,-0.3,76,77,75,0.119,-5.8,-5.0,-6.2,4.187,2.4,228,14,4.6,-0.00002,-0.00003,30.8,32.5,35,0,0,0.0,.,0.00,0.00
15min,AgWx,bigpiney,439,27DEC2018:04:45:00,2.1,12.5,1.4,0.8,0.9,1.1,0.7,74,76,73,0.118,-5.4,-5.0,-5.7,2.126,3.4,243,29,5.9,-0.00001,-0.00001,30.8,32.5,35,0,0,0.0,.,0.00,0.00
15min,AgWx,bigpiney,439,27DEC2018:05:00:00,2.5,12.49,-0.3,-1.5,-0.6,0.7,-1.6,76,78,74,0.110,-6.4,-5.3,-7.0,2.17,1.3,7.9,41,3.9,-0.00004,-0.00005,30.8,32.5,35,0,0,0.0,.,0.00,0.00
15min,AgWx,bigpiney,439,27DEC2018:05:15:00,2.7,12.48,0.3,0.6,-0.5,0.6,-1.5,79,80,78,0.122,-5.4,-4.5,-6.8,0.46,0.8,128,70,2.1,-0.00005,-0.00007,30.7,32.5,35,0,0,0.0,.,0.00,0.00
15min,AgWx,bigpiney,439,27DEC2018:05:30:00,3.0,12.49,1.2,0.4,0.6,1.1,0.2,78,79,78,0.121,-4.6,-3.9,-5.1,0,1.2,40,46,3.0,-0.00005,-0.00006,30.7,32.5,35,0,0,0.0,.,0.00,0.00
15min,AgWx,bigpiney,439,27DEC2018:05:45:00,3.3,12.47,1.9,1.8,1.2,1.8,0.5,78,79,78,0.129,-4.0,-3.5,-4.6,1.513,0.6,152,34,1.6,-0.00006,-0.00009,30.7,32.4,35,0,0,0.0,.,0.00,0.00
15min,AgWx,bigpiney,439,27DEC2018:06:00:00,3.7,12.46,2.7,2.1,2.1,2.4,1.6,79,80,78,0.134,-2.9,-2.5,-3.6,3.486,2.7,104,38,4.6,-0.00003,-0.00003,30.7,32.5,35,0,0,0.0,.,0.00,0.00
15min,AgWx,bigpiney,439,27DEC2018:06:15:00,3.9,12.45,1.6,1.0,1.2,2.1,0.9,81,82,80,0.129,-3.4,-2.6,-3.7,1.688,3.7,105,11,6.5,-0.00002,-0.00001,30.7,32.5,35,0,0,0.0,.,0.00,0.00
15min,AgWx,bigpiney,439,27DEC2018:06:30:00,4.1,12.44,2.3,2.1,1.6,2.2,1.0,81,82,81,0.135,-2.8,-2.2,-3.4,0.833,1.2,158,18,2.4,-0.00005,-0.00007,30.7,32.5,35,0,0,0.0,.,0.00,0.00
15min,AgWx,bigpiney,439,27DEC2018:06:45:00,4.3,12.44,3.2,3.1,2.6,3.1,2.1,81,81,80,0.141,-2.0,-1.5,-2.4,2.609,0.8,202,25,2.6,-0.00006,-0.00009,30.6,32.5,35,0,0,0.0,.,0.00,0.00
15min,AgWx,bigpiney,439,27DEC2018:07:00:00,4.6,12.42,3.7,3.0,3.2,3.6,2.9,81,82,80,0.141,-1.4,-0.8,-1.7,3.617,3.2,287,32,5.0,-0.00002,-0.00002,30.6,32.5,35,0,0,0.0,.,0.00,0.00
15min,AgWx,bigpiney,439,27DEC2018:07:15:00,5.0,12.42,4.6,4.6,3.9,4.6,3.0,82,82,81,0.152,-0.5,0.3,-1.6,3.398,2.9,290,18,4.6,-0.00003,-0.00003,30.6,32.5,35,0,0,0.0,.,0.00,0.00
15min,AgWx,bigpiney,439,27DEC2018:07:30:00,5.4,12.42,5.1,4.3,4.6,4.7,4.3,81,81,80,0.148,0.0,0.2,-0.5,6.401,4.2,311,13,6.4,-0.00001,-0.00001,30.6,32.4,35,0,0,0.0,.,0.00,0.00
15min,AgWx,bigpiney,439,27DEC2018:07:45:00,5.7,12.42,4.8,4.5,4.3,4.5,4.2,80,80,79,0.149,-0.6,-0.4,-0.7,4.341,4.9,316,7.0,6.3,-0.00000,-0.00000,30.6,32.4,35,1,0,0.0,.,0.00,0.00
15min,AgWx,bigpiney,439,27DEC2018:08:00:00,6.1,12.47,5.9,5.7,5.2,5.7,4.5,80,80,79,0.158,0.3,0.9,-0.5,4.209,4.4,303,7.1,6.2,-0.00001,-0.00000,30.6,32.5,35,6,0,0.0,.,0.00,0.00
15min,AgWx,bigpiney,439,27DEC2018:08:15:00,6.5,12.71,7.2,7.0,6.5,7.0,5.8,78,80,77,0.161,1.2,1.4,0.9,3.814,3.6,303,9.7,5.3,-0.00008,-0.00004,30.5,32.5,35,25,0,0.0,.,0.00,0.00
15min,AgWx,bigpiney,439,27DEC2018:08:30:00,7.0,13.09,6.7,6.4,6.4,7.0,6.1,78,79,77,0.159,0.9,1.3,0.5,2.631,3.3,326,9.6,5.1,-0.00004,-0.00001,30.5,32.5,35,41,0,0.0,.,0.00,0.00